Location: Beaver Brook Trail
(44.0290°N, 71.8137°W)
Time: 09:34:45
(UTC+00:00)

Explorer 11/Cluster Stage 4 - Visible Passes

Search period start: 10 December 2025 00:00
Search period end: 20 December 2025 00:00
Orbit: 463 x 1181 km, 28.8° (Epoch: 09 December)

Date Brightness Start Highest point End Pass type
(mag) Time Alt. Az. Time Alt. Az. Time Alt. Az.
11 Dec 9.3 00:20:34 10° S 00:21:08 11° S 00:21:08 11° S visible
11 Dec 9.0 23:56:08 10° SSW 23:58:58 13° S 23:58:58 13° S visible
12 Dec 8.9 23:31:47 10° SSW 23:35:27 15° SSE 23:36:46 14° SSE visible
13 Dec 9.6 01:17:58 10° SW 01:18:03 10° SW 01:18:03 10° SW visible
13 Dec 9.0 23:07:30 10° SSW 23:11:36 16° SSE 23:14:33 12° SE visible
14 Dec 9.2 00:53:47 10° SW 00:55:49 16° SSW 00:55:49 16° SSW visible
14 Dec 9.1 22:43:17 10° SSW 22:47:43 17° SSE 22:51:55 10° SE visible
15 Dec 8.9 00:29:37 10° SW 00:33:35 20° SSW 00:33:35 20° SSW visible
15 Dec 9.2 22:19:07 10° SSW 22:23:49 17° SSE 22:28:18 10° SE visible
16 Dec 8.7 00:05:28 10° SW 00:10:57 22° S 00:11:20 22° S visible
16 Dec 9.2 21:55:00 10° SSW 21:59:53 18° SSE 22:04:37 10° SE visible
16 Dec 8.7 23:41:20 10° SW 23:47:03 23° S 23:49:05 20° SSE visible
17 Dec 9.6 01:29:26 10° SW 01:30:21 12° SW 01:30:21 12° SW visible
17 Dec 8.8 23:17:15 10° SW 23:23:07 24° S 23:26:51 16° SE visible
18 Dec 9.2 01:05:17 10° WSW 01:08:08 17° SW 01:08:08 17° SW visible
18 Dec 8.9 22:53:11 10° SW 22:59:10 24° S 23:04:39 11° SE visible
19 Dec 9.0 00:41:10 10° WSW 00:45:56 20° SSW 00:45:56 20° SSW visible
19 Dec 9.0 22:29:10 10° SW 22:35:11 25° S 22:41:03 10° SE visible
